This demonstration page uses our WeatherBlox Daily Observations layout. Learn more.

Hourly Observations for September 13, 2016

Temp ( °F °C ) Dew Point ( °F °C ) Humidity (%) Winds ( mph kmh ) Pressure ( in mb ) Visibility ( mi km ) Precip ( " mm )
12:15 am 00:15 Cloudy 59 15 48 8.9 67 67 NNE 15 24 30.03 1017 10 16.09344 0 0
12:35 am 00:35 Cloudy 59 15.1 48 8.7 66 66 NNE 12 19 30.03 1017 10 16.09344 0 0
12:55 am 00:55 Cloudy 59 15.1 47 8.6 65 65 NNE 13 20 30.03 1017 10 16.09344 0 0
1:15 am 01:15 Cloudy 59 15 48 8.7 66 66 NNE 12 19 30.03 1017 10 16.09344 0 0
1:35 am 01:35 Cloudy 59 15 48 8.7 66 66 NNE 15 24 30.03 1017 10 16.09344 0 0
1:55 am 01:55 Cloudy 59 14.9 48 8.7 67 67 NNE 15 24 30.03 1017 10 16.09344 0 0
2:15 am 02:15 Cloudy 59 14.8 48 8.7 67 67 NNE 12 19 30.03 1017 10 16.09344 0 0
2:35 am 02:35 Cloudy 58 14.7 48 8.7 68 68 NNE 13 20 30.06 1018 10 16.09344 0 0
2:55 am 02:55 Cloudy 58 14.7 47 8.6 67 67 NNE 10 17 30.06 1018 10 16.09344 0 0
3:15 am 03:15 Cloudy 58 14.6 47 8.6 67 67 NNE 13 20 30.06 1018 10 16.09344 0 0
3:35 am 03:35 Cloudy 58 14.5 47 8.6 68 68 NNE 14 22 30.06 1018 10 16.09344 0 0
3:55 am 03:55 Cloudy 58 14.5 48 8.8 69 69 NNE 12 19 30.06 1018 10 16.09344 0 0
4:15 am 04:15 Cloudy 58 14.2 48 8.8 70 70 NNE 10 17 30.09 1019 10 16.09344 0 0
4:35 am 04:35 Cloudy 57 14 47 8.5 70 70 N 12 19 30.09 1019 10 16.09344 0 0
4:55 am 04:55 Cloudy 57 13.7 47 8.5 71 71 N 9 15 30.12 1020 10 16.09344 0 0
5:15 am 05:15 Cloudy 56 13.5 48 8.7 73 73 N 12 19 30.12 1020 10 16.09344 0 0
5:35 am 05:35 Cloudy 56 13.2 47 8.6 74 74 NNW 10 17 30.12 1020 10 16.09344 0 0
5:55 am 05:55 Cloudy 55 13 47 8.5 74 74 N 12 19 30.12 1020 10 16.09344 0 0
6:15 am 06:15 Cloudy 55 12.7 47 8.3 75 75 N 14 22 30.12 1020 10 16.09344 0 0
6:35 am 06:35 Mostly Cloudy 55 12.5 46 7.8 73 73 NNE 17 28 30.09 1019 10 16.09344 0 0
6:55 am 06:55 Partly Cloudy with Thunderstorms 54 12.1 46 7.5 74 74 NNE 18 30 30.06 1018 10 16.09344 0 0
7:15 am 07:15 Mostly Cloudy 54 12 46 7.5 74 74 N 15 24 30.09 1019 10 16.09344 0 0
7:35 am 07:35 Cloudy 54 12.1 45 7.3 73 73 N 17 28 30.12 1020 10 16.09344 0 0
7:55 am 07:55 Cloudy 54 12.1 46 7.5 74 74 NNE 12 19 30.12 1020 10 16.09344 0 0
8:15 am 08:15 Cloudy 54 12.1 45 7.3 73 73 NNE 14 22 30.15 1021 10 16.09344 0 0
8:35 am 08:35 Cloudy 54 12 45 7.1 72 72 NNE 12 19 30.15 1021 10 16.09344 0 0
8:55 am 08:55 Cloudy 53 11.8 45 7.1 73 73 N 10 17 30.18 1022 10 16.09344 0 0
9:15 am 09:15 Cloudy 53 11.8 45 7.1 73 73 N 12 19 30.18 1022 10 16.09344 0 0
9:35 am 09:35 Cloudy 53 11.8 45 7 73 73 NNE 14 22 30.15 1021 10 16.09344 0 0
9:55 am 09:55 Cloudy 54 12 45 7 72 72 NNE 10 17 30.15 1021 10 16.09344 0 0
10:15 am 10:15 Cloudy 55 12.5 45 7 69 69 NNE 16 26 30.15 1021 10 16.09344 0 0
10:35 am 10:35 Cloudy 55 12.6 45 7 69 69 NNE 16 26 30.18 1022 10 16.09344 0 0
10:55 am 10:55 Cloudy 55 12.5 45 7 69 69 NNE 15 24 30.18 1022 10 16.09344 0 0
11:15 am 11:15 Cloudy 55 12.6 45 7.2 70 70 NNE 16 26 30.18 1022 10 16.09344 0 0
11:35 am 11:35 Cloudy 54 12.3 45 7.2 71 71 N 12 19 30.21 1023 10 16.09344 0 0
11:55 am 11:55 Cloudy with Light Drizzle 54 12.2 45 7.4 73 73 NNE 12 19 30.21 1023 10 16.09344 0 0
12:15 pm 12:15 Cloudy with Light Rain 53 11.8 47 8.1 78 78 NNE 12 19 30.21 1023 10 16.09344 0 0
12:35 pm 12:35 Cloudy 55 12.7 47 8.1 74 74 NNE 16 26 30.18 1022 10 16.09344 0 0
12:55 pm 12:55 Mostly Cloudy with Light Rain 55 12.5 47 8.1 75 75 NNE 14 22 30.15 1021 10 16.09344 0 0
1:15 pm 13:15 Cloudy 54 12.2 47 8.2 77 77 NNE 13 20 30.18 1022 10 16.09344 0 0
1:35 pm 13:35 Cloudy with Light Rain 54 12.1 47 8.6 79 79 NNE 8 13 30.18 1022 10 16.09344 0 0
1:55 pm 13:55 Cloudy 55 12.9 47 8.6 75 75 NNE 12 19 30.18 1022 10 16.09344 0 0
2:15 pm 14:15 Cloudy 55 13 47 8.2 73 73 NNE 13 20 30.18 1022 10 16.09344 0 0
2:35 pm 14:35 Cloudy 56 13.4 47 8.3 71 71 N 7 11 30.18 1022 10 16.09344 0 0
2:55 pm 14:55 Cloudy 57 14.1 47 8.4 69 69 NNE 9 15 30.18 1022 10 16.09344 0 0
3:15 pm 15:15 Cloudy 59 15 47 8.3 64 64 NNE 13 20 30.12 1020 10 16.09344 0 0
3:35 pm 15:35 Cloudy 59 15 46 8 63 63 N 14 22 30.15 1021 10 16.09344 0 0
3:55 pm 15:55 Cloudy 58 14.5 46 7.9 65 65 NNE 14 22 30.15 1021 10 16.09344 0 0
4:15 pm 16:15 Cloudy 58 14.6 46 7.5 63 63 NNE 16 26 30.15 1021 10 16.09344 0 0
4:35 pm 16:35 Cloudy 59 15 46 7.6 61 61 NE 15 24 30.12 1020 10 16.09344 0 0
4:55 pm 16:55 Cloudy 59 14.8 45 7.3 61 61 NE 16 26 30.12 1020 10 16.09344 0 0
5:15 pm 17:15 Cloudy 58 14.6 44 6.9 60 60 NNE 13 20 30.12 1020 10 16.09344 0 0
5:35 pm 17:35 Cloudy 58 14.6 44 6.7 59 59 NNE 13 20 30.15 1021 10 16.09344 0 0
5:55 pm 17:55 Cloudy 58 14.5 44 6.6 59 59 NNE 14 22 30.15 1021 10 16.09344 0 0
6:15 pm 18:15 Cloudy 58 14.5 44 6.6 59 59 NE 12 19 30.15 1021 10 16.09344 0 0
6:35 pm 18:35 Cloudy 58 14.5 44 6.9 61 61 NE 12 19 30.15 1021 10 16.09344 0 0
6:55 pm 18:55 Cloudy 58 14.2 44 6.9 62 62 NNE 12 19 30.18 1022 10 16.09344 0 0
7:15 pm 19:15 Cloudy 57 14.1 45 7 63 63 NE 15 24 30.18 1022 10 16.09344 0 0
7:35 pm 19:35 Cloudy 57 13.9 45 7.2 64 64 NE 10 17 30.18 1022 10 16.09344 0 0
7:55 pm 19:55 Cloudy 57 13.7 45 7.3 66 66 NE 13 20 30.18 1022 10 16.09344 0 0
8:15 pm 20:15 Cloudy 56 13.3 45 7.3 67 67 NE 10 17 30.18 1022 10 16.09344 0 0
8:35 pm 20:35 Cloudy 56 13.1 46 7.5 69 69 ENE 7 11 30.21 1023 10 16.09344 0 0
8:55 pm 20:55 Cloudy 55 13 46 7.6 70 70 NE 8 13 30.21 1023 10 16.09344 0 0
9:15 pm 21:15 Cloudy 55 13 46 7.9 71 71 NE 6 9 30.21 1023 10 16.09344 0 0
9:35 pm 21:35 Cloudy 55 12.7 47 8.1 74 74 ENE 6 9 30.21 1023 10 16.09344 0 0
9:55 pm 21:55 Cloudy 55 12.7 47 8.1 74 74 NE 5 7 30.24 1024 10 16.09344 0 0
10:15 pm 22:15 Cloudy 55 12.6 46 8 74 74 ENE 6 9 30.24 1024 10 16.09344 0 0
10:35 pm 22:35 Cloudy 55 12.5 46 8 74 74 ENE 7 11 30.24 1024 10 16.09344 0 0
10:55 pm 22:55 Cloudy 55 12.5 46 7.5 72 72 ENE 9 15 30.24 1024 10 16.09344 0 0
11:15 pm 23:15 Cloudy 54 12.3 46 7.6 73 73 NE 8 13 30.24 1024 10 16.09344 0 0
11:35 pm 23:35 Cloudy 54 12.2 46 7.5 73 73 NE 7 11 30.24 1024 10 16.09344 0 0
11:55 pm 23:55 Cloudy 54 12.2 46 7.6 74 74 NE 8 13 30.24 1024 10 16.09344 0 0

Powered by AerisWeather